Location: Izdebno
(52.6670°N, 16.2170°E)
Time: 02:44:01
(UTC+02:00)

SR - Pass Details

Date: 27 February 2024
Orbit: 577 x 862 km, 66.7° (Epoch: 22 April)

Event Time Altitude Azimuth Distance (km) Brightness Sun altitude
Rises 22:53:27 0° 319° (NW) 3,259 ? -43.1°
Reaches altitude 10° 22:55:58 10° 318° (NW) 2,283 ? -43.3°
Enters shadow 22:56:10 11° 318° (NW) 2,204 ? -43.3°
Maximum altitude 23:01:08 72° 235° (SW) 745 - -43.6°
Drops below altitude 10° 23:05:50 10° 152° (SSE) 2,078 - -43.8°
Sets 23:08:02 0° 150° (SSE) 2,945 - -44.0°
